This is the latest recevied weather packets stored in our database for station/object W8DRH-13. If no packets are shown the sender has not sent any weather packets the latest 10 day(s).
| Time | Temp. | Humidity | Pressure | Rain* | Wind** | Luminosity | Snow |
|---|---|---|---|---|---|---|---|
| 1777647660 | 7.22° C | 93% | 1008.8 hPa | 0 mm | - | 98 W/m² | - |
| 1777647355 | 6.67° C | 93% | 1008.8 hPa | 0 mm | - | 88 W/m² | - |
| 1777647054 | 7.22° C | 93% | 1008.9 hPa | 0 mm | - | 89 W/m² | - |
| 1777646750 | 7.22° C | 93% | 1009 hPa | 0 mm | - | 117 W/m² | - |
| 1777646444 | 7.22° C | 93% | 1008.8 hPa | 0 mm | - | 178 W/m² | - |
| 1777646141 | 6.67° C | 93% | 1008.8 hPa | 0 mm | - | 179 W/m² | - |
| 1777645839 | 6.67° C | 93% | 1008.9 hPa | 0 mm | - | 129 W/m² | - |
| 1777645536 | 6.67° C | 94% | 1009.1 hPa | 0 mm | - | 96 W/m² | - |
| 1777645232 | 6.67° C | 92% | 1009.1 hPa | 0 mm | - | 62 W/m² | - |
| 1777644927 | 6.67° C | 92% | 1009.3 hPa | 1.78 mm | - | 44 W/m² | - |
| 1777644626 | 6.67° C | 92% | 1009.1 hPa | 4.83 mm | - | 38 W/m² | - |
| 1777644321 | 6.67° C | 92% | 1009.3 hPa | 4.32 mm | - | 47 W/m² | - |
| 1777644017 | 6.67° C | 92% | 1009.4 hPa | 4.83 mm | - | 42 W/m² | - |
| 1777643715 | 7.22° C | 92% | 1009.3 hPa | 3.56 mm | - | 36 W/m² | - |
| 1777643412 | 7.22° C | 92% | 1009.4 hPa | 1.27 mm | - | 35 W/m² | - |
| 1777643109 | 7.22° C | 92% | 1009.4 hPa | 1.27 mm | - | 47 W/m² | - |
| 1777642805 | 7.22° C | 92% | 1009.4 hPa | 0 mm | - | 51 W/m² | - |
| 1777642502 | 7.22° C | 92% | 1009.1 hPa | 0 mm | - | 30 W/m² | - |
| 1777642198 | 7.22° C | 92% | 1009.1 hPa | 1.78 mm | - | 39 W/m² | - |
| 1777641896 | 7.22° C | 92% | 1009.4 hPa | 3.05 mm | - | 73 W/m² | - |
| 1777641596 | 7.22° C | 91% | 1009.8 hPa | 3.05 mm | - | 76 W/m² | - |
| 1777641296 | 7.22° C | 91% | 1009.8 hPa | 4.83 mm | - | 39 W/m² | - |
| 1777640993 | 7.22° C | 91% | 1010 hPa | 4.32 mm | - | 25 W/m² | - |
| 1777640689 | 7.22° C | 90% | 1009.8 hPa | 3.05 mm | - | 15 W/m² | - |
| 1777640385 | 7.22° C | 90% | 1009.9 hPa | 1.78 mm | - | 16 W/m² | - |
* Rain latest hour (hover to see other rain measurements)
** Current wind speed in m/s (hover to see current wind gust speed)